[[{"header":{"parameterUnit":"m.s-1","parameterCategory":1,"la1":30.2991,"la2":30.254,"lo1":-89.0895,"lo2":-89.0444,"dy":0.0017,"dx":0.0017,"nx":28,"ny":28,"refTime":"2025-08-25T21:00:00:Z","depth":0,"parameterNumber":2,"parameterNumberName":"U-component_of_WINDS"},"data":[0,0,0,0,0,0,0,0,0,0,0,0,0,0,0,0,0,0,0,0,0,0,0,0,0,0,0,0,0,0,0,0,0,0,0,0,0,0,0,0,0,0,0,0,0,0,0,0,0,0,0,0,0,0,0,0,0,0,-3.4937,-3.4938,0,-3.4989,-3.4989,-3.499,-3.4902,-3.4899,-3.4896,-3.4893,-3.4951,-3.4955,-3.4959,0,0,0,0,0,0,0,0,0,0,0,0,0,-3.4766,-3.4769,-3.4937,-3.4938,-3.4939,-3.4989,-3.4989,-3.499,-3.4903,-3.4899,-3.4895,-3.4892,-3.4949,-3.4954,-3.4959,0,0,0,0,0,0,0,0,0,0,0,0,0,-3.4831,-3.477,-3.4937,-3.4901,-3.4898,-3.4989,-3.499,-3.499,-3.4903,-3.4899,-3.4894,-3.489,-3.4947,-3.4954,-3.496,-3.509,0,0,-3.498,-3.4983,0,0,0,0,0,0,0,0,-3.4828,-3.4838,-3.4906,-3.4903,-3.4901,-3.4934,-3.495,-3.5024,-3.4905,-3.4902,-3.4893,-3.4888,-3.4949,-3.4955,-3.4975,-3.5093,-3.5095,-3.498,-3.4984,-3.4987,-3.4989,0,0,0,0,0,0,0,-3.4823,-3.4835,-3.4958,-3.4907,-3.4904,-3.4883,-3.4887,-3.4963,-3.495,-3.4901,-3.4895,-3.4902,-3.4947,-3.4969,-3.4976,-3.5096,-3.498,-3.4986,-3.499,-3.4993,-3.5322,-3.5327,0,0,0,0,0,0,-3.4823,-3.4832,-3.4956,-3.4959,-3.4852,-3.489,-3.4894,-3.4928,-3.4949,-3.4948,-3.4906,-3.4898,-3.496,-3.4968,-3.4977,-3.5131,-3.4987,-3.4993,-3.4997,-3.5317,-3.5323,-3.5328,0,0,0,0,0,0,-3.4819,-3.4835,-3.4954,-3.4894,-3.4907,-3.4897,-3.4936,-3.4932,-3.4953,-3.4952,-3.495,-3.4931,-3.4957,-3.4968,-3.5062,-3.5132,-3.4996,-3.5002,-3.5312,-3.5319,-3.5326,-3.5439,0,0,0,0,0,0,-3.4815,-3.4834,-3.4883,-3.4895,-3.4911,-3.5038,-3.494,-3.4936,-3.4964,-3.4954,-3.4975,-3.4974,-3.4954,-3.5053,-3.5069,-3.5138,-3.5007,-3.5305,-3.5315,-3.5323,-3.5429,-3.5449,-3.5467,0,0,0,0,0,-3.4809,-3.4914,-3.4886,-3.4901,-3.4972,-3.5042,-3.5051,-3.5025,-3.497,-3.502,-3.5018,-3.4973,-3.5121,-3.5063,-3.508,-3.5153,-3.5301,-3.5312,-3.5323,-3.5421,-3.5446,-3.5466,0,0,0,0,0,0,-3.4912,-3.4915,-3.4884,-3.4996,-3.5019,-3.5027,-3.5089,-3.5052,-3.5092,-3.5081,-3.5048,-3.5053,-3.5155,-3.5162,-3.5098,-3.5279,-3.5202,-3.5217,-3.5271,-3.5294,-3.5312,-3.531,-3.5012,0,0,0,0,0,-3.4947,-3.5003,-3.5003,-3.5101,-3.5114,-3.51,-3.5129,-3.5107,-3.513,-3.514,-3.5146,-3.5172,-3.5223,-3.5259,-3.5306,-3.5429,-3.5433,-3.5487,-3.5505,-3.5521,-3.5535,-3.5601,-3.5625,-3.5364,-3.5364,-3.5364,0,0,-3.5021,-3.503,-3.5068,-3.5122,-3.5138,-3.5197,-3.5109,-3.5176,-3.522,-3.5151,-3.524,-3.5245,-3.5271,-3.538,-3.5428,-3.539,-3.5607,-3.5535,-3.5547,-3.5553,-3.5614,-3.5639,-3.5661,-3.5372,-3.537,-3.5369,0,0,-3.5187,-3.5199,-3.5282,-3.5299,-3.5322,-3.5311,-3.5331,-3.5345,-3.5345,-3.5433,-3.5382,-3.5434,-3.5524,-3.5545,-3.5567,-3.5739,-3.5699,-3.5755,-3.5854,-3.5918,-3.5939,-3.5957,-3.6019,-3.6042,-3.5768,-3.5769,-3.5769,0,-3.5278,-3.5364,-3.533,-3.5401,-3.5426,-3.5364,-3.5448,-3.5466,-3.5505,-3.5525,-3.548,-3.5591,-3.5605,-3.5717,-3.5759,-3.5779,-3.5801,-3.5754,-3.5938,-3.5956,-3.5973,-3.6032,-3.6055,-3.5775,-3.5775,-3.5774,-3.5773,0,-3.5474,-3.5535,-3.5599,-3.5637,-3.5669,-3.5747,-3.5725,-3.5762,-3.5736,-3.573,-3.582,-3.5833,-3.5883,-3.5907,-3.5883,-3.6016,-3.5992,-3.5943,-3.5866,-3.6005,-3.606,-3.6082,-3.5785,-3.5783,-3.5781,-3.5779,0,0,-3.571,-3.5725,-3.575,-3.5765,-3.5786,-3.5832,-3.5906,-3.5952,-3.5986,-3.6013,-3.6076,-3.6152,-3.6106,-3.6132,-3.6109,-3.6165,-3.6301,-3.6109,-3.611,-3.6146,-3.645,-3.6488,-3.6515,-3.6273,-3.6277,-3.628,-3.6448,0,-3.5876,-3.6003,-3.5973,-3.6099,-3.6155,-3.6095,-3.6159,-3.6179,-3.6175,-3.6222,-3.6217,-3.6272,-3.6207,-3.6222,-3.6275,-3.6273,-3.6362,-3.626,-3.6332,-3.6335,-3.633,-3.6543,-3.6584,-3.6742,-3.6469,-3.6473,-3.6475,0,-3.6088,-3.6122,-3.6253,-3.6263,-3.6285,-3.6344,-3.6383,-3.6428,-3.6449,-3.6442,-3.6469,-3.6435,-3.6509,-3.6428,-3.653,-3.6461,-3.6488,-3.6492,-3.6497,-3.6505,-3.6416,-3.6559,-3.6791,-3.6816,-3.6509,-3.6506,-3.6504,0,-3.6249,-3.6327,-3.6416,-3.6431,-3.6444,-3.6487,-3.6494,-3.651,-3.654,-3.6574,-3.6593,-3.6636,-3.6661,-3.6695,-3.6673,-3.6616,-3.6779,-3.6696,-3.6777,-3.6778,-3.6816,-3.6815,-3.7059,-3.683,-3.683,-3.6829,-3.6829,0,-3.6439,-3.6522,-3.6488,-3.6543,-3.6633,-3.6598,-3.6689,-3.669,-3.6705,-3.6759,-3.6709,-3.6761,-3.6728,-3.6778,-3.6761,-3.6848,-3.6859,-3.6857,-3.6852,-3.6863,-3.6863,-3.6882,-3.6871,-3.6836,-3.6834,-3.6833,-3.6832,0,-3.6636,-3.6616,-3.6708,-3.6712,-3.6715,-3.6782,-3.6786,-3.6837,-3.6827,-3.6896,-3.6911,-3.6897,-3.6952,-3.6933,-3.6993,-3.6981,-3.7093,-3.7073,-3.7086,-3.7082,-3.7164,-3.7157,-3.7431,-3.7465,-3.7213,-3.7215,-3.7217,0,-3.676,-3.6822,-3.6832,-3.6863,-3.6874,-3.6926,-3.6955,-3.6922,-3.6955,-3.6982,-3.703,-3.7081,-3.712,-3.7212,-3.7208,-3.7253,-3.7235,-3.7327,-3.7242,-3.7251,-3.7238,-3.7236,-3.7243,-3.7346,-3.7349,-3.7351,-3.7353,0,-3.6983,-3.6969,-3.7012,-3.7051,-3.7087,-3.7117,-3.7142,-3.7171,-3.714,-3.7179,-3.7234,-3.7264,-3.7324,-3.7376,-3.7416,-3.7424,-3.7385,-3.7379,-3.74,-3.7414,-3.742,-3.7419,-3.7135,-3.7374,-3.7372,-3.737,-3.7369,-3.7368,-3.7148,-3.72,-3.7215,-3.7264,-3.7279,-3.7303,-3.7351,-3.7346,-3.7391,-3.7437,-3.7414,-3.7479,-3.7497,-3.7547,-3.7561,-3.7611,-3.7576,-3.7606,-3.7615,-3.7623,-3.7635,-3.7409,-3.7618,-3.7618,-3.7617,-3.7617,-3.7616,0,-3.737,-3.7375,-3.742,-3.7457,-3.7495,-3.7451,-3.7476,-3.7512,-3.7569,-3.7588,-3.7627,-3.769,-3.7739,-3.7738,-3.7783,-3.7824,-3.7807,-3.7837,-3.7836,-3.7838,-3.7663,-3.7641,-3.7851,-3.7851,-3.7851,-3.785,-3.785,-3.785,-3.749,-3.7575,-3.7563,-3.7656,-3.7661,-3.7723,-3.7741,-3.7763,-3.7778,-3.7851,-3.7891,-3.7888,-3.79,-3.7945,-3.7989,-3.7987,-3.8007,-3.8045,-3.8037,-3.7874,-3.7851,-3.7829,-3.7808,-3.8049,-3.8049,-3.8208,-3.8209,-3.8211]},{"header":{"parameterUnit":"m.s-1","parameterCategory":1,"la1":30.2991,"la2":30.254,"lo1":-89.0895,"lo2":-89.0444,"dy":0.0017,"dx":0.0017,"nx":28,"ny":28,"refTime":"2025-08-25T21:00:00:Z","depth":0,"parameterNumber":3,"parameterNumberName":"V-component_of_WINDS"},"data":[0,0,0,0,0,0,0,0,0,0,0,0,0,0,0,0,0,0,0,0,0,0,0,0,0,0,0,0,0,0,0,0,0,0,0,0,0,0,0,0,0,0,0,0,0,0,0,0,0,0,0,0,0,0,0,0,0,0,-3.5536,-3.5536,0,-3.5557,-3.5557,-3.5557,-3.5541,-3.5541,-3.554,-3.5539,-3.5559,-3.556,-3.5561,0,0,0,0,0,0,0,0,0,0,0,0,0,-3.5478,-3.548,-3.5536,-3.5536,-3.5536,-3.5557,-3.5557,-3.5557,-3.5541,-3.554,-3.554,-3.5539,-3.5558,-3.556,-3.5561,0,0,0,0,0,0,0,0,0,0,0,0,0,-3.5502,-3.548,-3.5536,-3.5531,-3.5531,-3.5557,-3.5557,-3.5558,-3.5541,-3.554,-3.5539,-3.5538,-3.5558,-3.556,-3.5561,-3.5593,0,0,-3.5567,-3.5567,0,0,0,0,0,0,0,0,-3.55,-3.5504,-3.5531,-3.5531,-3.5531,-3.5545,-3.5544,-3.5569,-3.5542,-3.5537,-3.5539,-3.5538,-3.5555,-3.5557,-3.5563,-3.5594,-3.5595,-3.5567,-3.5568,-3.5569,-3.5569,0,0,0,0,0,0,0,-3.5499,-3.5503,-3.5544,-3.5532,-3.5531,-3.5527,-3.5529,-3.5549,-3.5552,-3.5538,-3.5536,-3.5539,-3.5555,-3.5561,-3.5563,-3.5595,-3.5567,-3.5568,-3.5569,-3.557,-3.5651,-3.5652,0,0,0,0,0,0,-3.5498,-3.5502,-3.5543,-3.5545,-3.5513,-3.5528,-3.5531,-3.5542,-3.5551,-3.5552,-3.554,-3.5538,-3.5559,-3.5561,-3.5564,-3.5601,-3.5569,-3.557,-3.5571,-3.565,-3.5651,-3.5653,0,0,0,0,0,0,-3.5497,-3.5502,-3.5542,-3.5523,-3.5528,-3.5531,-3.5543,-3.5543,-3.5549,-3.5553,-3.5554,-3.5547,-3.5558,-3.5562,-3.5586,-3.5601,-3.5571,-3.5573,-3.5649,-3.5651,-3.5652,-3.5675,0,0,0,0,0,0,-3.5495,-3.5502,-3.5514,-3.5523,-3.5529,-3.5565,-3.5544,-3.5544,-3.5553,-3.5551,-3.556,-3.556,-3.5558,-3.5583,-3.5587,-3.5603,-3.5574,-3.5647,-3.565,-3.5652,-3.5673,-3.5677,-3.5681,0,0,0,0,0,-3.5493,-3.552,-3.5515,-3.552,-3.5545,-3.5566,-3.5569,-3.5566,-3.5554,-3.5566,-3.5569,-3.556,-3.5599,-3.5586,-3.559,-3.5607,-3.5646,-3.5649,-3.5651,-3.5671,-3.5676,-3.5681,0,0,0,0,0,0,-3.5512,-3.5521,-3.5516,-3.5546,-3.5555,-3.5563,-3.5578,-3.5572,-3.5584,-3.5582,-3.5577,-3.5579,-3.5604,-3.5608,-3.5593,-3.5637,-3.5621,-3.5624,-3.5634,-3.5639,-3.5643,-3.5641,-3.5575,0,0,0,0,0,-3.552,-3.5537,-3.5543,-3.5569,-3.5574,-3.5576,-3.5585,-3.5582,-3.5591,-3.5594,-3.5598,-3.5607,-3.5621,-3.563,-3.5644,-3.5673,-3.5674,-3.5687,-3.5691,-3.5694,-3.5697,-3.5712,-3.5717,-3.5661,-3.5661,-3.5661,0,0,-3.5536,-3.5543,-3.5554,-3.5573,-3.558,-3.5597,-3.5579,-3.5598,-3.5609,-3.5597,-3.562,-3.5623,-3.5632,-3.5659,-3.5671,-3.5663,-3.5713,-3.5697,-3.57,-3.5701,-3.5715,-3.572,-3.5725,-3.5662,-3.5662,-3.5662,0,0,-3.5574,-3.5581,-3.5603,-3.561,-3.5621,-3.5621,-3.5627,-3.5635,-3.5637,-3.566,-3.5651,-3.5664,-3.5689,-3.5695,-3.5702,-3.5741,-3.5733,-3.5745,-3.5766,-3.5781,-3.5785,-3.5789,-3.5802,-3.5807,-3.5748,-3.5749,-3.5749,0,-3.5592,-3.5617,-3.5615,-3.5634,-3.5642,-3.5632,-3.5654,-3.5661,-3.5675,-3.568,-3.5671,-3.5701,-3.5707,-3.5734,-3.5744,-3.575,-3.5754,-3.5744,-3.5785,-3.5789,-3.5792,-3.5805,-3.581,-3.575,-3.575,-3.575,-3.5749,0,-3.5639,-3.5656,-3.5673,-3.5687,-3.5697,-3.5717,-3.5717,-3.5727,-3.5724,-3.5725,-3.5748,-3.5754,-3.5768,-3.5774,-3.5771,-3.5801,-3.5795,-3.5786,-3.5769,-3.5799,-3.581,-3.5815,-3.5752,-3.5751,-3.5751,-3.5751,0,0,-3.5688,-3.5701,-3.5707,-3.5713,-3.5723,-3.5736,-3.5756,-3.577,-3.5778,-3.5788,-3.5803,-3.5824,-3.5815,-3.5822,-3.5819,-3.5832,-3.5861,-3.5821,-3.5821,-3.5827,-3.5894,-3.59,-3.5906,-3.5856,-3.5857,-3.5858,-3.5893,0,-3.5726,-3.576,-3.5758,-3.5789,-3.5805,-3.5795,-3.5812,-3.5819,-3.5821,-3.5834,-3.5835,-3.5849,-3.5837,-3.5841,-3.5854,-3.5855,-3.5874,-3.5853,-3.5869,-3.587,-3.5866,-3.5912,-3.5919,-3.5952,-3.5897,-3.5898,-3.5899,0,-3.5773,-3.5785,-3.5819,-3.5826,-3.5832,-3.5847,-3.5859,-3.5872,-3.588,-3.588,-3.5888,-3.5883,-3.5901,-3.5885,-3.5909,-3.5894,-3.5901,-3.5902,-3.5904,-3.5904,-3.5885,-3.5913,-3.5962,-3.5967,-3.5906,-3.5905,-3.5905,0,-3.5805,-3.5829,-3.5852,-3.5857,-3.5867,-3.5877,-3.5882,-3.5889,-3.5897,-3.5908,-3.5913,-3.5925,-3.5931,-3.5941,-3.5938,-3.5927,-3.5963,-3.5946,-3.5962,-3.5962,-3.597,-3.5969,-3.602,-3.5976,-3.5976,-3.5976,-3.5975,0,-3.5846,-3.5866,-3.5866,-3.588,-3.5902,-3.5899,-3.5921,-3.5924,-3.593,-3.5944,-3.5936,-3.5949,-3.5946,-3.5958,-3.5956,-3.5976,-3.5979,-3.5979,-3.5978,-3.5979,-3.5979,-3.5982,-3.598,-3.5977,-3.5977,-3.5976,-3.5976,0,-3.5884,-3.5885,-3.5909,-3.5916,-3.5919,-3.5934,-3.594,-3.5953,-3.5953,-3.5971,-3.5974,-3.5975,-3.5989,-3.5988,-3.6004,-3.6003,-3.6027,-3.6024,-3.6024,-3.6023,-3.6039,-3.6037,-3.6093,-3.6099,-3.6052,-3.6053,-3.6053,0,-3.591,-3.5926,-3.5934,-3.5943,-3.5948,-3.5963,-3.5971,-3.5968,-3.5977,-3.5987,-3.5998,-3.6012,-3.6022,-3.6045,-3.6046,-3.6058,-3.6055,-3.6073,-3.6056,-3.6056,-3.6053,-3.6052,-3.6053,-3.6076,-3.6077,-3.6077,-3.6078,0,-3.5955,-3.5955,-3.5967,-3.598,-3.599,-3.6,-3.6009,-3.6016,-3.6015,-3.6025,-3.6039,-3.6047,-3.6063,-3.6076,-3.6087,-3.6091,-3.6083,-3.6083,-3.6087,-3.6088,-3.6087,-3.6087,-3.6032,-3.6082,-3.6081,-3.6081,-3.6081,-3.6081,-3.5987,-3.6,-3.6008,-3.6022,-3.6028,-3.6037,-3.6049,-3.6051,-3.6063,-3.6076,-3.6074,-3.609,-3.6097,-3.6111,-3.6115,-3.6127,-3.612,-3.6127,-3.6128,-3.6129,-3.6131,-3.6086,-3.6129,-3.6129,-3.6129,-3.6129,-3.6129,0,-3.603,-3.6035,-3.6048,-3.6061,-3.6072,-3.6065,-3.6074,-3.6083,-3.6098,-3.6105,-3.6116,-3.6131,-3.6144,-3.6147,-3.6158,-3.6167,-3.6164,-3.617,-3.6169,-3.6169,-3.6137,-3.6131,-3.6172,-3.6172,-3.6172,-3.6172,-3.6172,-3.6172,-3.6054,-3.6075,-3.6076,-3.6099,-3.6104,-3.612,-3.6125,-3.6132,-3.6138,-3.6157,-3.6167,-3.6169,-3.6174,-3.6186,-3.6197,-3.6197,-3.6201,-3.6208,-3.6207,-3.6176,-3.6172,-3.6168,-3.6163,-3.6209,-3.621,-3.6239,-3.6239,-3.6239]}]]